User: anonymous   Login
Location: Oshawa
(43.9000°N, 78.8670°W)
Time: 02:27:16
(UTC-04:00)
Language:

CZ-4C R/B - Orbit

View from above orbital plane
View from above orbital plane
View from above satellite
View from above satellite

Ground track
Ground track

The orbit data is extracted from the following two-line orbital elements,

1 32290U 07055B   15216.81788644  .00004221  00000-0  13968-3 0  9993
2 32290 097.5413 300.6872 0077744 037.6065 076.8296 15.28989402427334
Epoch (UTC): 04 August 2015 19:37:45
Eccentricity: 0.0077744
inclination: 97.5413°
perigee height: 425 km
apogee height: 532 km
right ascension of ascending node: 300.6872°
argument of perigee: 37.6065°
revolutions per day: 15.28989402
mean anomaly at epoch: 76.8296°
orbit number at epoch: 42733

The dashed part of the orbit path shows where the satellite is in the earth's shadow,  

DLR